Regional Weather Roundup
Issued by NWS Wakefield, VA

Home | Current Version | Previous Version | Graphics & Text | Print | Product List | Glossary On
Versions: 1 2 3 4 5 6 7 8 9 10 11 12 13 14 15 16 17 18 19 20 21 22 23 24 25 26 27 28 29 30 31 32 33 34 35 36 37 38 39 40 41 42 43 44 45 46 47 48 49 50
000
ASUS41 KAKQ 201210
RWRAKQ

REGIONAL WEATHER ROUNDUP
NATIONAL WEATHER SERVICE WAKEFIELD VA
800 AM EDT WED AUG 20 2014

Note: "fair" indicates few or no clouds below 12,000 feet with no
significant weather and/or obstructions to visibility. * = Denotes
station may not report precipitation (e.g., rain,snow,etc.),
thunder or fog.

VAZ042-051-052>054-056-201300-
NORTHERN VIRGINIA

CITY           SKY/WX    TMP DP  RH WIND       PRES   REMARKS
WASH NATIONAL  PTSUNNY   75  65  70 S6        29.97S
DULLES         CLOUDY    71  67  87 S5        29.97R
FORT BELVOIR   MOSUNNY   70  66  87 E2        29.97S
QUANTICO       PTSUNNY   73  67  81 S7        29.98R
FREDERICKSBRG* MOSUNNY   69  69 100 CALM      29.96S FOG
STAFFORD*      CLOUDY    69  69 100 CALM      30.01S FOG
WARRENTON      CLOUDY    72  72 100 CALM      29.97S FOG
CULPEPER*      PTSUNNY  N/A N/A N/A CALM      29.97S FOG
MANASSAS*      NOT AVBL
LEESBURG*      CLOUDY    72  72 100 CALM      29.98R
WINCHESTER     MOSUNNY   70  70 100 S3        29.97R
$$

VAZ048-049-060>072-079>083-201300-
CENTRAL AND SOUTH CENTRAL VIRGINIA...AND NORTH CENTRAL NORTH CAROLINA

CITY           SKY/WX    TMP DP  RH WIND       PRES   REMARKS
RICHMOND       PTSUNNY   74  68  81 E5        29.97R
CHESTERFIELD*  MOSUNNY  N/A N/A N/A CALM      29.98R
HANOVER        MOSUNNY   69  68  96 CALM      29.98S
TAPPAHANNOCK*  PTSUNNY   70  68  93 CALM      29.97S
CHARLOTTSVILLE CLOUDY    72  70  93 S3        29.98R
ORANGE*        CLOUDY    70  68  94 CALM      29.99S FOG
LOUISA*        CLOUDY    70  70 100 CALM      29.98R FOG
FARMVILLE*     CLOUDY    72  70  94 CALM      29.96R FOG
SOUTH HILL*    FOG       72  72 100 CALM      30.02R VSB 1
ROANOKE RAPIDS FOG       70  70 100 N3        29.96R VSB 1/2
RALEIGH        FOG       73  70  90 CALM      29.97R VSB 1/4
$$

VAZ088>098-201300-
SOUTHEAST VIRGINIA

CITY           SKY/WX    TMP DP  RH WIND       PRES   REMARKS
NORFOLK        CLOUDY    76  69  79 NE9       29.94R
VIRGINIA BEACH MOSUNNY   78  69  73 NE6       29.93R
NORFOLK NAVAL  MOSUNNY   77  69  76 NE8       29.96R
WEST POINT*    SUNNY     73  70  91 CALM      29.97S
NEWPORT NEWS   SUNNY     77  71  82 N6        29.96R
LANGLEY AFB    PTSUNNY   76  74  93 NE7       29.95R
FORT EUSTIS    SUNNY     73  73 100 N2        29.94R
WILLIAMSBURG*  SUNNY     72  72 100 CALM      29.97R
FRANKLIN*      PTSUNNY   72 N/A N/A CALM      29.95S
WAKEFIELD      SUNNY     73  69  87 CALM      29.96R
$$

VAZ020-022-025-037-045-201300-
WESTERN AND SOUTHWEST VIRGINIA

CITY           SKY/WX    TMP DP  RH WIND       PRES   REMARKS
STAUNTON*      PTSUNNY   69  66  92 SW3       30.01R
HOT SPRINGS VA NOT AVBL
LYNCHBURG      CLOUDY    70  70 100 S5        30.01R FOG
DANVILLE       CLOUDY    73  70  90 E3        29.98S
MARTINSVILLE   CLOUDY    72  71  96 CALM      30.02S
ROANOKE        CLOUDY    67  66  97 W5        30.03R FOG
BLACKSBURG     CLOUDY    68  68 100 CALM      30.07S FOG
DUBLIN*        FOG       66  66 100 CALM      30.07S VSB 1/4
MARION*        CLOUDY    69  67  94 W6        30.09S FOG
HILLSVILLE*    MOSUNNY   63  63 100 CALM      30.08S FOG
RICHLANDS*     FOG       69  68  94 CALM      30.06S THUNDER VSB<1/4
WISE*          TSTM      63  63 100 E5        30.10R
ABINGDON*      CLOUDY    69  69 100 CALM      30.06R FOG
$$

MDZ021>025-VAZ099-100-201300-
SOUTHERN MARYLAND AND THE DELMARVA PENINSULA

CITY           SKY/WX    TMP DP  RH WIND       PRES   REMARKS
PATUXENT RIVER MOSUNNY   73  66  78 E7        29.96R
BAY BRIDGE APT   N/A     72  66  83 SE5       29.97R
LEONARDTOWN    PTSUNNY   70  64  83 CALM      29.98S
DOVER          PTSUNNY   69  69 100 CALM      29.96R
GEORGETOWN     SUNNY     70  65  84 E7        29.98R
EASTON         PTSUNNY   68  68 100 CALM      30.00S
CAMBRIDGE      SUNNY     70  64  83 CALM      29.96S
SALISBURY      SUNNY     72  65  78 CALM      29.97R
OCEAN CITY     SUNNY     75  66  73 E7        29.96R
WALLOPS ISLAND SUNNY     70  66  87 N7        29.97R
ACCOMACK*      SUNNY     70  66  88 NE3       29.96R
$$

NCZ012>017-030>032-201300-
EASTERN NORTH CAROLINA

CITY           SKY/WX    TMP DP  RH WIND       PRES   REMARKS
ELIZABETH CITY CLOUDY    74  72  93 N7        29.93R
AHOSKIE*       CLOUDY    70  69  98 N6        29.96R VSB 3/4
EDENTON*       SUNNY     72  71  97 N5        29.94R
CURRITUCK*     CLOUDY    77  71  83 NE5       29.94R
KILL DEVIL HLS PTSUNNY   76  73  90 NE5       29.91R
MANTEO         RAIN      75  73  94 N9        29.92R
CAPE HATTERAS  PTSUNNY   78  73  84 VRB3      29.91R
GOLDSBORO      CLOUDY    73  72  99 NE3       29.93R FOG
WASHINGTON     CLOUDY    72  71  99 NW3       29.95R VSB 1/2
GREENVILLE     LGT RAIN  72  72 100 N5        29.97R
NEW BERN       CLOUDY    75  73  94 CALM      29.95R FOG
WILMINGTON     SUNNY     77  73  87 NW5       29.93R
$$

VAZ048-201300-
ELSEWHERE

CITY           SKY/WX    TMP DP  RH WIND       PRES   REMARKS
HARRISBURG PA  CLOUDY    71  64  78 SE5       29.96R
BALTIMORE      PTSUNNY   70  65  84 CALM      29.97R
ANNAPOLIS      MOSUNNY   74  66  76 SE8       29.97R
ANDREWS AFB    SUNNY     70  68  92 S5        29.98R
WILMINGTON DE  MOSUNNY   73  66  78 CALM      29.98R
PHILADELPHIA   PTSUNNY   72  66  81 SE7       29.98R
WILDWOOD NJ*   MOSUNNY   70  63  78 CALM      29.99R
ATLANTIC CITY  MOSUNNY   67  64  90 CALM      29.98R
HENDERSON NC   CLOUDY    72  70  95 CALM      29.98R FOG
GREENSBORO     FOG       71  71 100 N3        29.98S VSB 1/8
ROCKY MOUNT    FOG       72  71  97 N6        29.96R VSB 1/2
FAYETTEVILLE   MOSUNNY   76  73  91 CALM      29.93S
CHARLOTTE      MOSUNNY   72  69  90 CALM      29.99R
$$

VAZ100-201300-
MARINE

STATION/POSITION TIME  TEMP    WIND        PRES    WAVE   SWELL
                       AIR SEA DIR/SP/G            HT/PER HT/PER
                 (UTC) (F)     (DEG/KT/KT) (MB)    (FT/S) (FT/S)
44066 TX TWR #4  1200   72 72   40/ 12/ 14 1014.3R   3/ 6   2/ 7
CAPE MAY NJ      1200   72 79   90/  3/  4 1014.7R
LEWES DE         1200   73 75   90/  7/  9 1014.6S
15NM E FENWICK I 1200   74 75              1014.5R   3/ 6
OCEAN-CITY-INLET 1200   74 74   60/  8/ 12 1014.1R
WACHAPREAGUE VA  1200   73 77  360/  2/  4 1014.3R
THOMAS POINT MD  1200   72 77  130/  8/  9 1015.3R
GOOSES REEF MD   1200   73     140/  8/ 10 1015.1S
COVE POINT MD    1200   72     130/  8/  9 1014.6R
SOLOMONS ISLAND  1200      79                N/A
BISHOPS HEAD MD  1200   72 76   60/  5/  6 1014.3R
PINEY POINT MD   1200          110/  5/  6   N/A
POTOMAC MD       1200   75      90/  8/  8 1013.9S
CAMBRIDGE MD     1200   71 78   90/  5/  7 1014.5R
LEWISETTA VA     1200   74 78   80/  4/  6 1014.3R
RAPPAHANNOCK LGT 1200           40/ 11/ 12 1014.7S
STINGRAY PT      1200   76      70/ 10/ 10 1014.9S
YORK RVR RNG VA  1200   76      70/  8/  9 1013.8R
YORKTOWN VA      1200   73 79  340/  5/  6 1014.0R
JAMESTOWN VA     1200   72      20/  2/  4   N/A
DOMINION TERM VA 1200   76      20/  3/  6 1014.1R
KIPTOPEKE VA     1200      81   30/  5/  7   N/A
CHES BAY BRIDGE  1200   75 77   20/  9/ 11 1013.2F
CAPE HENRY VA    1200   76      30/ 11/ 12 1012.6R
CHESAPEAKE LGHT  1100   76      40/ 11/ 12 1013.9R
WILLOUBY STN VA  1200   76      40/  8/  9 1012.9R
S CRANEY ISL VA  1200           20/  7/  9 1013.7R
CAPE HENRY BUOY  1200      76                N/A     3/ 6
1ST LANDING BUOY 1200   77      30/ 10/ 12 1013.5R
CAPE CHARLES BUO 1200      77                N/A     3/ 6   2/ 6
OFFSHORE WE BUOY 1200      76                N/A     3/ 6   3/ 6
64NM E OF VA BCH 1200   78 78   40/ 12/ 14 1012.6R   3/ 6   2/ 9
DUCK PIER NC     1200   77 78   30/ 13/ 14 1012.6R
44056 DUCK FRF   1200                        N/A     3/ 5
OREGON INLET NC  1200   78 81   20/  3/  5 1012.9R
HATTERAS NC      1200   79 81  340/  9/ 11 1013.4R
DIAMOND SHLS NC  1200   78     320/  8/ 12 1012.6R   2/ 7   2/ 7
CAPE LOOKOUT NC  1100   78     320/  7/  9 1012.4R
$$


USA.gov is the U.S. government's official web portal to all federal, state and local government web resources and services.